www.pogodaiklimat.ru

Погода и климат >> Архив погоды >> Россия >> Ненецкий АО >> Мыс Микулкин


ПОГОДА на Мысе Микулкин

  • Прогноз погоды на Мысе Микулкин
  • Монитор погоды на Мысе Микулкин
  • Климат города

АРХИВ ПОГОДЫ на Мысе Микулкин

Время (UTC), дата Ветер
(напр.,м/с)
 
Видим.   Явления Облачность Т
(С)
Тd
(С)
f
(%)
Тe
(С)
Тes
(С)
Комфортность P
(гПа)
Po
(гПа)
Тmin
(С)
Tmax
(С)
R
(мм)
R24
(мм)
S
(см)
03 15.10 ЮВ 5 н/о н/о +2.1 +1.2 94 -4 -4 1013.1 1012.4
06 15.10 Ю 5 н/о н/о +2.0 +1.1 94 -4 -4 1013.1 1012.3
09 15.10 ЮВ 4 н/о н/о +1.6 +0.9 95 -4 -4 1013.5 1012.8
12 15.10 ЮВ 5 н/о н/о +2.6 +1.4 92 -3 -3 1013.9 1013.1
15 15.10 ЮВ 8 н/о н/о +2.3 +1.7 96 -5 -5 1014.0 1013.2
18 15.10 ЮВ 8 н/о н/о +2.1 +1.1 93 -5 -5 1013.9 1013.1
21 15.10 ЮВ 8 н/о н/о +0.8 +0.1 95 -7 -7 1013.6 1012.9
00 16.10 ЮВ 8 н/о н/о +0.4 +0.1 98 -7 -7 1013.1 1012.3
03 16.10 ЮВ 8 н/о н/о +0.6 +0.5 99 -7 -7 1012.2 1011.5
06 16.10 Ю 5 н/о н/о +1.7 +1.0 95 -4 -4 1010.9 1010.1
09 16.10 Ю 3 н/о н/о +2.8 +1.6 92 -1 -1 1009.6 1008.9
12 16.10 Ю 3 н/о н/о +3.3 +2.3 93 -1 -1 1007.8 1007.1
15 16.10 Ю 6 н/о н/о +3.9 +3.2 95 -2 -2 1005.7 1005.0
18 16.10 ЮЗ 7 н/о н/о +5.0 +4.7 98 -1 -1 1002.1 1001.3
21 16.10 ЮЗ 8 н/о н/о +5.4 +5.3 99 -1 -1 998.9 998.2
00 17.10 Ю 7 н/о н/о +5.7 +5.3 97 0 0 995.9 995.2
03 17.10 Ю 8
{14}
н/о н/о +6.1 +5.7 97 0 0 993.5 992.8
06 17.10 Ю 8
{14}
н/о н/о +5.6 +4.4 92 -0 -0 992.1 991.3
09 17.10 ЮВ 9
{13}
н/о н/о +5.7 +4.8 94 -0 -0 991.6 990.9
12 17.10 ЮВ 9 н/о н/о +5.2 +4.6 96 -1 -1 991.4 990.7
15 17.10 ЮВ 9
{13}
н/о н/о +5.2 +4.6 96 -1 -1 991.2 990.5
18 17.10 ЮВ 8
{13}
н/о н/о +4.9 +4.3 96 -1 -1 990.8 990.1
21 17.10 В 8 н/о н/о +4.5 +4.1 97 -2 -2 990.1 989.3
00 18.10 В 8 н/о н/о +4.3 +3.7 96 -2 -2 989.2 988.5
03 18.10 В 6 н/о н/о +3.8 +3.2 96 -2 -2 988.0 987.3
06 18.10 В 6 н/о н/о +4.0 +3.3 95 -2 -2 987.1 986.4
09 18.10 СВ 6 н/о н/о +3.3 +2.6 95 -3 -3 986.5 985.8
12 18.10 СВ 7 н/о н/о +3.2 +2.5 95 -3 -3 986.0 985.2
15 18.10 СВ 10
{15}
н/о н/о +2.6 +1.7 94 -5 -5 986.2 985.4
18 18.10 СВ 12
{18}
н/о н/о +2.1 +0.9 92 -6 -6 986.7 986.0
21 18.10 СВ 14
{19}
н/о н/о +2.2 +0.9 91 -6 -6 987.1 986.4
00 19.10 СВ 14
{21}
н/о н/о +1.7 +0.2 90 -7 -7 989.8 989.1
03 19.10 СВ 13
{20}
н/о н/о +0.9 -0.3 92 -8 -8 992.6 991.9
06 19.10 СВ 11
{19}
н/о н/о +1.4 -1.8 79 -7 -7 995.8 995.0
09 19.10 СВ 8
{17}
н/о н/о +2.3 -3.8 64 -4 -4 998.6 997.8
12 19.10 СВ 8
{14}
н/о н/о -0.4 -1.0 96 -8 -8 1001.0 1000.2
15 19.10 С 5
{14}
н/о н/о -0.8 -1.9 92 -7 -7 1002.7 1002.0
18 19.10 С 5 н/о н/о -1.2 -1.5 98 -8 -8 1004.1 1003.3
21 19.10 СЗ 4 н/о н/о -3.7 -3.8 99 -10 -10 1004.4 1003.6
00 20.10 СЗ 5 н/о н/о -3.9 -4.3 97 -11 -11 1004.7 1004.0
03 20.10 С 7 н/о н/о -1.6 -1.9 98 -9 -9 1005.3 1004.6
06 20.10 СЗ 4 н/о н/о -2.4 -3.1 95 -9 -9 1005.4 1004.6
09 20.10 СЗ 7 н/о н/о -0.7 -2.0 91 -8 -8 1005.9 1005.2
12 20.10 СЗ 6 н/о н/о -0.8 -2.2 90 -8 -8 1006.3 1005.6
15 20.10 СЗ 6 н/о н/о -1.8 -3.1 91 -9 -9 1006.1 1005.3
18 20.10 С 6 н/о н/о -0.8 -1.2 97 -8 -8 1005.9 1005.2
21 20.10 С 5 н/о н/о -0.8 -1.9 92 -7 -7 1005.3 1004.6
00 21.10 С 6 н/о н/о -0.7 -2.4 88 -8 -8 1004.9 1004.1
03 21.10 СЗ 6 н/о н/о -1.9 -3.0 92 -9 -9 1004.2 1003.5
06 21.10 С 6 н/о н/о +0.1 -1.3 90 -7 -7 1003.4 1002.6
09 21.10 С 6 н/о н/о +0.7 -0.7 90 -6 -6 1003.1 1002.4
12 21.10 СЗ 4 н/о н/о +0.4 -1.2 89 -5 -5 1002.7 1002.0
15 21.10 С 5 н/о н/о +0.2 -0.4 96 -6 -6 1002.3 1001.5
18 21.10 С 5 н/о н/о -1.4 -1.8 97 -8 -8 1002.1 1001.4
21 21.10 С 4 н/о н/о -4.6 -5.0 97 -11 -11 1002.3 1001.5

 

Местоположение метеостанции Мыс Микулкин (Ненецкий АО, Россия): широта 67.80 долгота 46.66 высота над уровнем моря 6 м.

В архиве по умолчанию представлена погода на Мысе Микулкин за последнюю неделю. Архивные данные за месяц целиком и за предыдущие месяцы, начиная с января 2011 года, Вы можете получить, выбрав интересующий диапазон дат из раскрывающегося списка и нажав кнопку "Ввод!".

Внимание! Время в таблицах - всемирное. Для получения местного времени необходимо прибавить поправку, которая на Мысе Микулкин равна 3 ч.

Смотрите также архив погоды в соседних городах и на ближайших метеорологических станциях:

Погода в Индиге (Ненецкий АО, Россия) (86 км)
Погода в Шойне (Ненецкий АО, Россия) (105 км)
Погода в Нижней Пеше (Ненецкий АО, Россия) (126 км)
Погода в Бугрино (Ненецкий АО, Россия) (156 км)
Погода в Неси (Ненецкий АО, Россия) (158 км)
Погода в Канином Носе (Ненецкий АО, Россия) (168 км)
Погода в Сенгейском Шаре (Ненецкий АО, Россия) (205 км)
Погода в Коткино (Ненецкий АО, Россия) (209 км)
Погода на Колгуевом Острове (Ненецкий АО, Россия) (216 км)
Погода на Моржовец Острове (Архангельская область, Россия) (216 км)

Пояснения к столбцам:

Ветер - указаны скорость ветра в м/с - средняя за 10 мин, порывы в срок и между сроками (в фигурных скобках) и направление, откуда дует ветер: С - северный, СВ - северо-восточный, В - восточный, ЮВ - юго-восточный, Ю - южный, ЮЗ - юго-западный, З - западный, СЗ - северо-западный.
Видимость - горизонтальная дальность видимости в метрах или километрах. При видимости от 1 до 10 км при отсутствии осадков обычно наблюдается дымка, при ухудшении видимости до 1 км и менее - туман. В сухую погоду видимость может ухудшаться дымом, пылью или мглою.
Явления - указаны атмосферные явления, наблюдавшиеся в срок или в последний час перед сроком; фигурными скобками обозначены явления, наблюдавшиеся между сроками (за 1-3 часа до срока); квадратными скобками обозначены град или гололедные отложения с указанием их диаметра в мм.
Облачность - указаны через наклонную черту общая и нижняя облачность в баллах и высота нижней границы облаков в метрах; квадратными скобками обозначены формы облаков: Ci - перистые, Cs - перисто-слоистые, Cc - перисто-кучевые, Ac - высококучевые, As - высокослоистые, Sc - слоисто-кучевые, Ns - слоисто-дождевые, Cu - кучевые, Cb - кучево-дождевые. Подробнее классификацию облаков см. в Атласе облаков (PDF).
T - Температура воздуха - температура, измеренная на высоте 2 м над землей.
Td - Температура точки росы - температура, при понижении до которой содержащийся в воздухе водяной пар достигнет насыщения.
f - Относительная влажность воздуха - влажноcть воздуха, измеренная на высоте 2 м над землей.
Te - Эффективная температура - температура, которую ощущает одетый по сезону человек в тени. Характеристика душности погоды. При расчете учитывается влияние влажности воздуха и скорости ветра на теплоощущения человека.
Tes - Эффективная температура на солнце - температура, которую ощущает человек, с поправкой на солнечный нагрев. Характеристика знойности погоды. Зависит от высоты солнца над горизонтом, облачности и скорости ветра. Ночью, в пасмурную погоду, а также при ветре 12 м/с и более поправка равна нулю.
P - Атмосферное давление - приведенное к уровню моря атмосферное давление.
Po - Атмосферное давление - измеренное на уровне метеостанции атмосферное давление.
Tmin - Минимальная температура - минимум температуры воздуха на высоте 2 м над землей.
Tmax - Максимальная температура - максимум температуры воздуха на высоте 2 м над землей.
R - Количество осадков - Количество выпавших осадков за период времени, мм. При наведении курсора мыши на число - период времени, за который выпало указанное количество осадков.
R24 - Количество осадков - Количество выпавших осадков за 24 часа, мм.
S - Снежный покров - Высота снежного покрова, см. При наведении курсора мыши на число - состояние снежного покрова и степень покрытия местности в баллах.